Weather History for Middlesboro, KY

Change the Weather History Date:

Saturday, January 19, 2013

  Actual Average (KLOZ) Record (KLOZ)
Temperature  
Mean Temperature 38 °F 35 °F  
Max Temperature 51 °F 45 °F 70 °F (1996)
Min Temperature 26 °F 26 °F -25 °F (1994)
Degree Days  
Heating Degree Days 26 30  
Month to date heating degree days 566  
Since 1 July heating degree days 2218  
Cooling Degree Days 0 0  
Month to date cooling degree days 0  
Year to date cooling degree days 0  
Moisture  
Dew Point 32 °F    
Average Humidity 75    
Maximum Humidity 100    
Minimum Humidity 50    
Precipitation  
Precipitation 0.00 in 0.12 in 1.44 in (2001)
Month to date precipitation 2.17  
Year to date precipitation 2.17  
Sea Level Pressure  
Sea Level Pressure 30.27 in    
Wind  
Wind Speed 2 mph (SSE)    
Max Wind Speed 10 mph    
Max Gust Speed -    
Visibility 9 miles    
Events      
T = Trace of Precipitation, MM = Missing Value Source: NWS Daily Summary

Daily Weather History Graph

Daily Weather History Graph

Search for Another Location

Airport:

Trip Planner

Search our weather history database for the weather conditions in past years. The results will help you decide how hot, cold, wet, or windy it might be!

Date:

Astronomy

Jan. 19, 2013 Rise Set
Actual Time 6:44 AM CST 4:47 PM CST
Civil Twilight 6:16 AM CST 5:15 PM CST
Nautical Twilight 5:45 AM CST 5:46 PM CST
Astronomical Twilight 5:14 AM CST 6:17 PM CST
Moon 11:11 AM CST (1/19) 12:20 AM CST (1/19)
Length of Visible Light 10h 58m
Length of Day
10h 02m
First Quarter, 57% of the Moon is Illuminated
Jan 19
First Quarter
Jan 26
Full
Feb 3
Last Quarter
Feb 10
New
Feb 17
First Quarter

Hourly Weather History & Observations

Time (CST) Temp. Windchill Dew Point Humidity Pressure Visibility Wind Dir Wind Speed Gust Speed Precip Events Conditions
12:15 AM 28.4 °F - 28.4 °F 100% 30.40 in 10.0 mi Calm Calm - N/A   Clear
12:35 AM 28.4 °F - 28.4 °F 100% 30.40 in 10.0 mi Calm Calm - N/A   Clear
12:55 AM 28.4 °F - 26.6 °F 93% 30.40 in 7.0 mi Calm Calm - N/A   Clear
1:15 AM 28.4 °F - 26.6 °F 93% 30.41 in 7.0 mi Calm Calm - N/A   Clear
1:35 AM 28.4 °F - 26.6 °F 93% 30.40 in 7.0 mi Calm Calm - N/A   Clear
1:55 AM 26.6 °F - 26.6 °F 100% 30.40 in 5.0 mi Calm Calm - N/A   Clear
2:15 AM 26.6 °F - 26.6 °F 100% 30.40 in 7.0 mi Calm Calm - N/A   Clear
2:35 AM 26.6 °F - 26.6 °F 100% 30.39 in 7.0 mi Calm Calm - N/A   Clear
2:55 AM 26.6 °F - 24.8 °F 93% 30.39 in 7.0 mi Calm Calm - N/A   Clear
3:15 AM 26.6 °F - 26.6 °F 100% 30.38 in 7.0 mi Calm Calm - N/A   Clear
3:35 AM 26.6 °F - 26.6 °F 100% 30.37 in 7.0 mi Calm Calm - N/A   Clear
4:15 AM 26.6 °F - 24.8 °F 93% 30.36 in 7.0 mi Calm Calm - N/A   Clear
4:35 AM 26.6 °F - 26.6 °F 100% 30.37 in 7.0 mi Calm Calm - N/A   Clear
4:55 AM 28.4 °F - 26.6 °F 93% 30.37 in 10.0 mi Calm Calm - N/A   Clear
5:15 AM 30.2 °F 26.7 °F 30.2 °F 100% 30.36 in 10.0 mi ESE 3.5 mph - N/A   Clear
5:35 AM 32.0 °F 28.7 °F 30.2 °F 93% 30.37 in 10.0 mi SSE 3.5 mph - N/A   Clear
5:55 AM 30.2 °F - 28.4 °F 93% 30.37 in 10.0 mi Calm Calm - N/A   Clear
6:55 AM 28.4 °F - 28.4 °F 100% 30.37 in 7.0 mi Calm Calm - N/A   Clear
7:15 AM 33.8 °F 28.6 °F 32.0 °F 93% 30.37 in 10.0 mi ESE 5.8 mph - N/A   Clear
7:55 AM 33.8 °F 28.6 °F 32.0 °F 93% 30.37 in 10.0 mi East 5.8 mph - N/A   Clear
8:35 AM 37.4 °F 33.8 °F 32.0 °F 81% 30.38 in 10.0 mi SSE 4.6 mph - N/A   Clear
9:55 AM 41.0 °F 35.2 °F 33.8 °F 76% 30.38 in 10.0 mi SSE 9.2 mph - N/A   Clear
10:15 AM 42.8 °F 38.0 °F 32.0 °F 66% 30.37 in 10.0 mi SSE 8.1 mph - N/A   Clear
10:35 AM 42.8 °F 38.0 °F 33.8 °F 70% 30.36 in 10.0 mi SSE 8.1 mph - N/A   Clear
11:15 AM 44.6 °F 40.7 °F 33.8 °F 66% 30.33 in 10.0 mi SSE 6.9 mph - N/A   Clear
11:35 AM 46.4 °F 43.5 °F 33.8 °F 62% 30.31 in 10.0 mi SSE 5.8 mph - N/A   Clear
11:55 AM 46.4 °F 41.9 °F 33.8 °F 62% 30.30 in 10.0 mi South 9.2 mph - N/A   Clear
12:15 PM 46.4 °F 41.5 °F 35.6 °F 66% 30.28 in 10.0 mi South 10.4 mph - N/A   Clear
12:35 PM 48.2 °F - 35.6 °F 62% 30.27 in 10.0 mi South 9.2 mph - N/A   Clear
12:55 PM 48.2 °F - 35.6 °F 62% 30.25 in 10.0 mi South 9.2 mph - N/A   Clear
1:15 PM 48.2 °F - 35.6 °F 62% 30.24 in 10.0 mi South 8.1 mph - N/A   Clear
1:35 PM 50.0 °F - 35.6 °F 58% 30.22 in 10.0 mi SE 3.5 mph - N/A   Clear
1:55 PM 51.8 °F - 35.6 °F 54% 30.22 in 10.0 mi South 5.8 mph - N/A   Clear
2:35 PM 51.8 °F - 35.6 °F 54% 30.20 in 10.0 mi SE 5.8 mph - N/A   Clear
2:55 PM 51.8 °F - 33.8 °F 50% 30.19 in 10.0 mi South 5.8 mph - N/A   Clear
3:15 PM 51.8 °F - 35.6 °F 54% 30.19 in 10.0 mi SSE 5.8 mph - N/A   Clear
3:35 PM 51.8 °F - 35.6 °F 54% 30.19 in 10.0 mi SSW 4.6 mph - N/A   Clear
3:55 PM 48.2 °F - 33.8 °F 58% 30.18 in 10.0 mi South 5.8 mph - N/A   Clear
4:15 PM 48.2 °F - 33.8 °F 58% 30.18 in 10.0 mi Calm Calm - N/A   Clear
4:35 PM 48.2 °F - 33.8 °F 58% 30.18 in 10.0 mi Calm Calm - N/A   Clear
4:55 PM 46.4 °F - 33.8 °F 62% 30.18 in 10.0 mi Calm Calm - N/A   Clear
5:15 PM 46.4 °F - 33.8 °F 62% 30.18 in 10.0 mi Calm Calm - N/A   Clear
5:35 PM 44.6 °F - 35.6 °F 71% 30.18 in 10.0 mi Calm Calm - N/A   Clear
5:55 PM 42.8 °F - 35.6 °F 76% 30.18 in 10.0 mi Calm Calm - N/A   Clear
6:15 PM 41.0 °F - 35.6 °F 81% 30.18 in 10.0 mi Calm Calm - N/A   Clear
6:35 PM 37.4 °F - 33.8 °F 87% 30.18 in 10.0 mi Calm Calm - N/A   Clear
6:55 PM 37.4 °F 34.9 °F 33.8 °F 87% 30.17 in 10.0 mi SSW 3.5 mph - N/A   Clear
7:15 PM 42.8 °F - 33.8 °F 70% 30.17 in 10.0 mi Calm Calm - N/A   Clear
7:35 PM 44.6 °F - 33.8 °F 66% 30.18 in 10.0 mi Calm Calm - N/A   Clear
7:55 PM 46.4 °F 41.9 °F 32.0 °F 57% 30.16 in 10.0 mi SSW 9.2 mph - N/A   Clear
8:15 PM 46.4 °F 42.9 °F 32.0 °F 57% 30.16 in 10.0 mi SSW 6.9 mph - N/A   Clear
8:35 PM 46.4 °F 42.9 °F 32.0 °F 57% 30.15 in 10.0 mi SSW 6.9 mph - N/A   Clear
8:55 PM 46.4 °F 45.2 °F 32.0 °F 57% 30.15 in 10.0 mi South 3.5 mph - N/A   Clear
9:15 PM 44.6 °F 42.2 °F 32.0 °F 61% 30.15 in 10.0 mi SSE 4.6 mph - N/A   Clear
9:35 PM 46.4 °F 43.5 °F 32.0 °F 57% 30.15 in 10.0 mi South 5.8 mph - N/A   Clear
9:55 PM 44.6 °F 42.2 °F 32.0 °F 61% 30.15 in 10.0 mi SE 4.6 mph - N/A   Clear
10:15 PM 44.6 °F 43.1 °F 32.0 °F 61% 30.14 in 10.0 mi SE 3.5 mph - N/A   Clear
10:35 PM 44.6 °F 42.2 °F 32.0 °F 61% 30.14 in 1.0 mi SSE 4.6 mph - N/A   Clear
10:55 PM 44.6 °F 42.2 °F 32.0 °F 61% 30.14 in 10.0 mi South 4.6 mph - N/A   Clear
11:15 PM 39.2 °F - 33.8 °F 81% 30.14 in 10.0 mi Calm Calm - N/A   Clear
11:35 PM 37.4 °F - 33.8 °F 87% 30.14 in 10.0 mi Calm Calm - N/A   Clear